Regional Weather Roundup
Issued by NWS State College, PA

Home | Current Version | Previous Version | Graphics & Text | Print | Product List | Glossary On
Versions: 1 2 3 4 5 6 7 8 9 10 11 12 13 14 15 16 17 18 19 20 21 22 23 24 25 26 27 28 29 30 31 32 33 34 35 36 37 38 39 40 41 42 43 44 45 46 47 48 49 50
000
ASUS41 KCTP 250010
RWRCTP

REGIONAL WEATHER ROUNDUP
NATIONAL WEATHER SERVICE STATE COLLEGE PA
800 PM EDT WED AUG 24 2016

Note: "fair" indicates few or no clouds below 12,000 feet with no
significant weather and/or obstructions to visibility.

* = STATION THAT DOES NOT REPORT PRECIPITATION /E.G. RAIN...SNOW...ETC/
    THUNDER OR FOG.

PAZ002>004-007>009-013>016-020>023-029>032-250100-
WESTERN PENNSYLVANIA

CITY           SKY/WX    TMP DP  RH WIND       PRES   REMARKS
ERIE           CLEAR     80  61  52 S10       30.04F
MEADVILLE      CLOUDY    76  60  57 S5        30.10S
FRANKLIN*      CLOUDY    73  61  64 S9        30.14R
NEW CASTLE     FAIR      79  64  60 VRB3      30.11S
BEAVER COUNTY  CLEAR     77  55  47 S3        30.13S
BUTLER*        NOT AVBL
PITTSBURGH INT MOCLDY    81  62  52 SW5       30.12F
PITTSBURGH     CLEAR     80  61  52 S6        30.13S
INDIANA*       CLEAR     77  64  65 CALM      30.17S
LATROBE        CLEAR     81  64  57 S6        30.15S
WASHINGTON CO* CLEAR     79  64  61 S3        30.14F
$$

PAZ004>006-010>012-017>019-024>028-033>037-041-042-045-046-049>053-250100-
CENTRAL PENNSYLVANIA

CITY           SKY/WX    TMP DP  RH WIND       PRES   REMARKS
BRADFORD       CLOUDY    73  62  68 SE3       30.16S
DUBOIS         CLEAR     75  58  55 VRB5      30.15S
CLEARFIELD     CLEAR     76  61  59 SW5       30.16R
JOHNSTOWN      CLEAR     76  60  57 S5        30.20S
ALTOONA        CLEAR     76  65  68 S7        30.17S
STATE COLLEGE  PTCLDY    75  64  69 SE9       30.14F
WILLIAMSPORT   CLEAR     81  63  54 S13       30.11S
SELINSGROVE    CLEAR     77  67  71 S6        30.14S
FT INDIANTOWN  CLEAR     77  66  68 S5        30.17R
CAPITAL CITY   CLEAR     80  64  58 S9        30.15R
HARRISBURG     MOCLDY    79  68  69 S10       30.15R
YORK           CLEAR     76  65  68 CALM      30.18R
$$

PAZ038>040-043-044-047-048-054-055-060>062-067>071-250100-
EASTERN PENNSYLVANIA

CITY           SKY/WX    TMP DP  RH WIND       PRES   REMARKS
SCRANTON       CLEAR     76  62  62 VRB3      30.17R
MOUNT POCONO   CLEAR     68  59  73 SW5       30.23S
ALLENTOWN      CLEAR     79  61  53 S5        30.17R
QUAKERTOWN*    CLEAR     75  61  60 CALM      30.19S
READING        CLEAR     78  63  59 S8        30.16R
LANCASTER      CLEAR     76  66  71 S8        30.17S
COATESVILLE    CLEAR     73  63  68 CALM      30.21S
POTTSTOWN      CLEAR     77  61  57 S5        30.19S
BLUE BELL      CLEAR     73  61  64 SW3       30.18R
DOYLESTOWN     CLEAR     75  62  64 S3        30.17S
WILLOW GROVE   NOT AVBL
NORTH PHILA    CLEAR     80  62  54 SW3       30.19R
PHILADELPHIA   PTCLDY    79  64  60 S14       30.19R
$$




USA.gov is the U.S. government's official web portal to all federal, state and local government web resources and services.